Location: Foligno
(42.9600°N, 12.7050°E)
Time: 17:34:44
(UTC+02:00)

ISS - Pass Details

Date: 20 May 2018
Orbit: 402 x 407 km, 51.6° (Epoch: 27 May)

Event Time Altitude Azimuth Distance (km) Brightness Sun altitude
Exits shadow 00:06:06 14° 40° (NE) 1,258 -1.0 -25.6°
Drops below altitude 10° 00:06:39 10° 45° (NE) 1,458 -0.7 -25.7°
Sets 00:08:51 0° 55° (NE) 2,319 0.3 -25.8°
